RH
83 84 80 82 83 89 95 91 82 92 85 81 90 89 88 95 95 96 94 96 97 97 95 97 98 98 99 99 98 98 97 97 96 99 99 98 98 98 98 94 94 96 97
76 78 83 83 85 94 94 89 82 80 82 77 92 91 94 90 94 91 94 93 92 96 93 94 95 94 98 98 98 98 99 99 99 100 99 100 99 98 98 98 97 96 96
75 78 76 87 89 90 91 86 78 82 90 87 92 96 95 88 88 88 91 92 92 93 93 95 95 95 98 96 99 99 99 99 99 99 100 99 99 98 99 98 98 99 97
74 77 79 86 89 86 89 88 85 82 91 90 91 94 93 90 85 84 84 89 89 94 96 97 98 99 98 98 99 99 99 99 98 99 99 99 99 99 98 99 99 99 99
70 71 86 90 82 82 92 91 89 77 81 90 90 90 88 85 82 87 86 89 92 94 94 95 95 90 91 94 99 99 98 99 99 99 99 98 99 100 99 99 99 98 98
70 76 90 91 91 94 94 92 88 75 84 92 93 91 92 76 90 89 87 83 85 85 96 94 91 86 84 83 81 86 95 97 98 98 97 98 98 97 98 97 97 99 99
86 92 93 90 90 92 93 93 89 80 80 94 94 94 95 91 86 87 88 90 83 81 82 88 74 75 79 71 69 72 78 87 90 83 96 96 96 97 96 97 97 96 97
94 93 95 96 97 93 93 91 93 87 77 76 92 94 93 83 87 86 87 87 90 88 90 90 91 88 91 66 61 57 58 71 83 76 88 80 78 95 94 95 96 97 98
94 96 95 97 97 97 94 94 94 90 83 79 88 90 94 87 89 87 89 89 89 84 81 87 87 84 85 84 69 65 64 57 66 76 75 75 76 80 86 94 97 99 98
96 97 98 98 98 99 97 96 95 93 88 82 86 96 92 89 87 87 87 88 90 86 87 80 80 79 82 89 82 83 81 75 66 69 69 70 75 78 82 86 93 96 98
96 97 96 96 99 99 99 98 98 92 92 87 89 95 93 89 82 88 88 75 85 84 81 84 77 80 78 81 79 79 82 80 74 85 86 83 76 84 88 88 89 83 88
96 93 95 96 98 98 98 99 99 98 95 91 88 93 89 88 87 82 84 84 77 67 75 71 69 73 74 71 65 66 68 67 70 81 70 72 78 77 84 88 86 87 88
92 95 96 96 97 98 99 99 99 99 99 99 99 99 98 97 92 80 80 80 78 61 56 65 64 63 64 65 59 62 69 68 76 70 70 66 56 66 84 88 86 86 84
92 92 90 90 94 92 96 99 99 99 99 99 99 99 98 94 82 72 64 60 64 56 63 61 69 75 74 75 52 64 57 59 67 67 66 66 76 72 70 83 93 93 89
88 92 94 97 98 97 98 99 99 100 99 98 98 97 98 92 85 84 80 72 74 72 66 60 62 66 62 64 77 70 66 68 66 66 62 63 64 71 63 59 59 71 88
92 91 94 96 97 98 99 98 91 95 95 95 94 89 90 92 87 81 80 78 75 71 70 80 86 87 86 77 72 72 69 70 71 66 67 61 64 54 48 53 60 60 61
90 90 90 90 94 97 97 98 98 91 90 89 88 87 86 83 81 82 80 80 74 69 75 79 79 75 67 64 67 76 67 63 63 70 57 60 50 56 54 49 58 57 62
90 86 88 85 85 90 93 91 90 91 96 91 84 81 80 78 78 79 78 73 71 78 71 65 76 63 63 63 72 72 78 70 75 67 62 57 54 55 52 55 56 57 49
87 75 63 58 68 76 81 81 82 83 86 88 82 78 75 76 77 76 78 67 66 68 71 73 67 60 56 68 73 72 71 72 64 64 64 64 64 66 55 55 59 51 47
50 55 52 46 46 54 50 48 55 74 80 79 76 72 72 78 70 66 68 66 69 70 64 54 65 63 69 70 68 68 70 74 66 67 63 62 61 67 51 56 58 56 48
44 42 56 55 51 48 48 46 52 56 60 68 62 61 70 65 65 63 62 63 62 63 56 49 51 65 68 73 70 72 67 65 67 75 74 67 66 68 60 57 55 54 54
48 49 47 45 43 53 54 55 54 49 49 56 59 61 73 62 52 46 52 56 54 57 52 49 46 52 52 61 72 69 63 65 63 62 66 67 62 60 62 58 54 55 52
48 50 48 53 55 59 57 58 53 50 52 53 46 48 50 46 43 40 39 42 48 52 54 55 50 49 49 50 60 72 64 63 60 61 64 58 62 62 62 60 58 54 52
57 54 54 53 47 47 54 54 52 61 57 54 53 47 42 41 42 41 46 50 50 48 54 53 54 47 50 56 60 57 60 57 59 54 53 57 54 58 58 61 61 58 54
62 62 59 58 55 54 51 59 57 60 52 48 57 55 51 61 62 58 63 60 64 61 64 65 73 76 77 76 77 77 88 85 55 65 61 52 51 49 52 61 63 60 56
54 55 53 54 58 54 56 57 52 53 45 44 50 54 60 62 63 63 64 66 64 69 71 76 79 79 79 80 84 89 92 95 85 86 66 59 58 59 57 53 53 59 58
Wind_Speed
8 6 5 5 6 7 6 5 5 5 6 5 5 8 8 8 8 9 10 9 9 8 9 8 8 7 5 4 3 1 1 2 3 3 3 4 4 7 6 7 8 7 8
8 6 8 7 7 7 6 5 4 5 5 5 6 7 7 9 8 10 10 9 10 10 9 10 9 6 7 5 3 4 3 3 3 5 4 3 4 6 7 7 6 6 8
8 7 8 7 7 7 6 6 4 5 6 6 6 7 7 8 8 9 8 9 9 9 8 8 8 7 7 6 6 5 4 4 4 5 4 3 2 3 6 6 6 6 6
8 7 7 8 8 7 7 6 5 6 5 5 6 7 7 7 7 8 8 8 9 7 7 7 7 6 6 5 5 5 4 5 6 6 5 4 2 3 3 4 4 3 4
8 6 7 6 6 8 8 7 6 6 4 5 7 7 7 7 5 6 6 5 5 6 6 6 6 10 14 11 4 5 5 5 5 5 4 3 2 2 2 3 3 3 3
6 7 8 7 6 6 7 6 6 4 5 6 7 7 7 5 9 9 4 4 4 5 5 5 6 10 12 15 15 17 9 5 5 4 4 4 3 3 3 3 4 3 2
10 8 8 4 6 7 8 6 6 5 6 7 6 6 7 6 11 9 5 5 6 6 5 6 7 6 8 7 12 14 15 14 10 6 5 3 3 1 4 3 2 2 2
8 8 7 6 6 3 9 8 7 5 5 5 6 6 6 6 11 12 7 7 6 7 7 6 7 7 6 6 7 8 7 7 6 5 6 5 4 3 3 3 2 3 3
9 8 6 6 5 2 9 9 6 6 5 4 6 7 7 6 11 9 4 6 6 7 6 7 6 6 10 3 6 6 6 4 6 6 6 6 9 12 7 4 2 3 2
8 7 6 5 4 2 6 8 5 5 6 7 9 7 8 6 10 11 3 4 5 4 5 6 10 6 9 8 5 5 4 2 1 2 3 3 5 8 9 5 0 3 3
7 7 7 6 5 6 5 4 5 7 7 8 9 6 6 6 7 11 10 3 5 4 4 3 3 8 8 9 8 5 2 3 4 2 1 3 3 4 5 4 5 5 4
8 7 7 7 6 6 7 6 6 7 7 7 7 5 4 5 8 9 10 10 7 6 4 3 2 6 8 7 5 5 8 5 2 2 3 4 2 2 3 3 4 5 4
8 7 7 7 7 6 7 6 6 6 6 4 4 3 3 3 3 10 10 10 9 4 4 4 4 6 6 5 4 5 6 5 5 4 2 1 2 3 2 2 2 4 4
8 6 5 6 6 7 6 5 5 4 4 3 3 3 2 3 3 4 3 4 7 5 4 3 4 5 5 5 4 4 3 3 2 2 1 1 1 1 2 1 2 1 1
8 6 6 5 5 6 6 4 4 3 2 3 2 2 3 3 1 2 3 3 2 1 3 2 3 3 4 4 4 2 2 5 4 2 3 3 3 2 3 3 1 2 3
8 6 5 4 4 4 5 5 11 7 9 9 8 4 2 6 4 5 6 5 3 7 3 2 3 3 4 1 1 1 3 3 2 3 3 2 2 2 1 3 1 1 0
6 7 5 5 5 6 5 5 6 4 6 7 7 6 5 5 4 4 5 7 4 5 1 3 4 1 2 4 5 3 1 1 1 2 1 2 2 2 3 3 2 2 3
6 8 5 5 5 5 5 5 5 5 4 2 1 3 5 6 3 1 3 4 3 1 2 2 2 4 3 3 3 3 2 3 3 2 2 1 2 2 2 3 3 2 2
4 4 5 5 5 6 6 6 5 5 5 5 2 1 4 4 4 3 1 2 2 4 5 4 5 4 3 4 4 3 2 1 1 0 2 2 3 2 2 3 3 5 3
5 9 6 4 2 2 4 5 6 5 5 5 5 5 4 3 3 3 4 3 4 5 3 2 2 3 4 4 4 3 2 1 3 3 4 4 4 3 3 3 3 2 3
3 3 2 1 4 4 5 4 4 5 6 7 7 7 11 6 5 5 5 5 5 4 4 4 3 3 3 3 3 3 3 3 3 4 4 5 5 3 4 4 3 4 3
4 3 2 4 4 3 2 2 2 4 5 6 4 4 13 5 5 4 4 6 7 6 5 4 3 3 3 3 5 5 5 5 5 4 4 5 5 4 3 3 4 3 4
3 4 5 3 5 3 2 3 2 3 2 4 5 5 5 5 5 5 5 5 3 4 4 5 5 4 3 2 3 5 5 6 6 4 4 2 1 2 2 2 3 4 3
3 6 6 4 3 4 3 4 4 5 5 4 5 4 5 5 6 7 6 5 3 1 1 3 3 5 3 4 3 2 4 5 5 5 5 5 4 2 2 2 3 5 5
5 5 5 5 6 6 6 6 5 4 4 5 4 2 2 5 8 10 9 8 7 6 8 13 11 14 14 14 14 12 11 12 9 6 6 6 7 7 5 4 4 4 5
8 9 8 7 7 6 6 6 7 5 4 4 8 11 9 10 9 10 9 8 9 10 11 9 11 15 14 13 15 18 16 12 9 9 5 6 5 5 5 6 8 5 7
Wind_Direction
141 145 146 128 96 95 88 71 54 52 50 18 18 52 41 45 39 48 51 42 47 39 34 43 39 33 37 36 47 44 102 143 137 101 96 97 92 97 80 66 61 58 58
133 141 119 126 111 108 99 88 69 61 56 37 42 50 47 49 49 56 53 45 44 42 35 41 40 34 28 23 48 59 69 56 123 129 108 108 78 83 88 88 79 73 71
131 154 141 138 123 117 120 99 99 84 55 35 68 61 50 54 59 62 62 57 55 51 44 43 30 31 32 28 29 34 30 32 35 110 102 91 107 106 89 75 62 56 58
152 174 145 149 155 136 125 108 83 84 67 40 71 70 57 43 57 70 67 58 57 51 40 41 37 37 39 37 38 47 63 74 72 84 89 105 114 141 117 111 87 58 76
163 171 141 139 146 129 132 119 96 76 73 60 71 62 57 41 38 67 78 87 88 79 60 55 51 65 61 58 57 34 60 74 81 86 81 73 85 134 121 118 108 115 89
130 139 135 136 143 125 125 119 104 105 82 80 77 77 66 57 16 38 64 93 102 97 105 81 62 56 58 50 47 48 54 100 96 112 107 101 84 105 120 142 148 176 124
87 68 75 127 154 145 136 128 132 136 107 89 88 84 74 37 11 11 50 68 55 54 79 75 58 42 50 50 39 40 41 49 63 91 97 75 95 109 142 166 183 101 127
70 69 49 37 40 130 148 142 135 133 115 115 108 100 80 28 10 18 59 86 71 53 48 71 68 44 34 82 71 60 47 48 58 79 92 98 94 80 127 142 130 103 80
76 62 48 31 11 345 147 142 137 128 127 121 109 107 89 31 4 10 58 99 92 78 66 56 56 40 5 106 97 86 64 50 36 66 110 117 82 66 63 111 147 161 172
65 66 49 33 7 13 127 135 131 121 102 101 85 70 73 48 8 360 63 123 106 101 77 63 47 41 20 47 136 139 116 262 104 10 353 15 40 58 65 78 105 129 142
75 65 51 33 27 25 78 82 109 111 108 104 95 71 67 32 20 14 20 107 147 115 98 72 30 20 36 56 65 67 66 340 2 8 349 71 45 55 53 40 47 98 99
74 67 56 43 34 40 59 57 77 102 105 102 91 66 43 26 27 22 30 54 74 113 111 99 69 33 24 52 66 42 7 347 330 357 102 111 103 52 64 56 53 70 65
85 73 63 57 46 43 60 60 69 74 92 91 93 96 73 32 21 37 31 50 65 78 95 99 56 7 1 348 2 9 13 21 57 72 96 115 167 174 122 75 11 41 63
103 94 77 71 60 54 59 48 71 72 85 97 112 116 107 83 44 26 31 39 53 58 49 41 356 342 324 295 339 15 36 43 77 102 67 287 355 51 104 185 178 219 66
121 118 101 86 81 76 61 39 69 49 70 113 110 113 119 113 91 45 35 14 21 46 50 23 5 358 326 316 314 211 99 54 51 29 46 28 20 30 354 353 57 118 182
135 133 139 146 145 130 111 86 47 62 69 72 73 101 81 85 79 29 19 10 25 44 38 342 300 268 278 189 152 327 17 69 72 76 50 45 39 50 5 337 347 57 69
127 143 153 156 157 153 140 125 119 36 59 88 97 90 95 132 81 46 10 355 335 28 336 313 312 161 80 55 49 73 94 198 165 54 83 32 33 15 8 322 314 7 349
162 165 168 166 168 161 156 151 147 151 152 151 237 156 142 143 143 123 353 2 345 12 230 254 261 121 105 95 91 95 74 35 7 28 31 38 356 326 332 323 301 194 206
183 171 175 142 165 172 168 154 173 172 159 139 130 254 203 193 202 229 308 181 246 281 285 228 206 149 150 133 137 125 130 173 171 327 308 298 305 293 290 320 298 246 198
136 130 135 146 140 91 115 129 143 167 156 160 182 197 178 160 201 220 228 238 235 246 263 126 192 160 140 162 177 179 190 272 277 274 268 262 265 248 244 282 300 244 256
130 155 161 281 126 122 127 139 176 177 168 176 194 190 184 177 205 216 224 223 239 246 184 136 136 157 200 211 208 193 205 247 259 258 251 255 252 242 235 232 254 286 266
181 199 167 152 111 89 115 185 233 215 182 167 184 199 189 205 238 237 222 220 226 216 187 166 166 153 155 161 208 209 218 234 250 262 271 255 239 229 220 232 256 261 271
231 191 142 100 121 116 29 335 35 44 14 137 160 163 183 222 236 250 270 275 232 195 185 168 172 183 188 234 218 204 209 223 229 223 232 262 237 258 272 273 271 269 264
39 93 93 90 77 57 73 76 33 26 9 58 166 176 189 224 220 231 228 237 212 67 303 203 191 196 248 269 255 270 233 228 233 238 225 191 208 249 270 277 276 271 261
86 83 74 63 56 50 34 28 22 41 60 32 27 154 4 22 32 35 26 44 21 48 34 53 48 46 32 18 17 2 359 347 323 249 194 206 213 228 235 244 257 266 267
69 70 73 66 60 51 46 36 16 1 359 15 48 75 64 56 48 51 39 42 59 64 68 63 61 47 36 29 17 7 7 5 8 356 342 318 260 227 231 239 257 255 261